Location: Lane
(33.5226°N, 79.8788°W)
Time: 08:32:01
(UTC+00:00)

Vanguard 2 - Pass Details

Date: 10 October 2022
Orbit: 553 x 2932 km, 32.9° (Epoch: 08 December)

Event Time Altitude Azimuth Distance (km) Brightness Sun altitude
Rises 20:56:25 0° 283° (WNW) 5,137 12.6 22.2°
Reaches altitude 10° 20:59:23 10° 279° (W) 4,415 12.5 21.7°
Maximum altitude 21:12:15 61° 204° (SSW) 2,874 11.1 19.2°
Drops below altitude 10° 21:29:35 10° 130° (SE) 5,755 11.7 15.9°
Sets 21:34:07 0° 127° (SE) 6,726 12.0 15.0°
